Regional Weather Roundup
Issued by NWS

Home | Current Version | Previous Version | Graphics & Text | Print | Product List | Glossary On
Versions: 1 2 3 4 5 6 7 8 9 10 11 12 13 14 15 16 17 18 19 20 21 22 23 24 25 26 27 28 29 30 31 32 33 34 35 36 37 38 39 40 41 42 43 44 45 46 47 48 49 50
845
ASUS45 KCYS 121310
RWRWY

WYOMING REGIONAL WEATHER ROUNDUP
NATIONAL WEATHER SERVICE CHEYENNE WY
600 AM MST TUE DEC 12 2017

NOTE:  "FAIR" INDICATES FEW OR NO CLOUDS BELOW 12,000 FEET
WITH NO SIGNIFICANT WEATHER AND/OR OBSTRUCTIONS TO VISIBILITY.

WYZ001-121400-
YELLOWSTONE NATIONAL PARK

CITY           SKY/WX    TMP DP  RH WIND       PRES   REMARKS
LK YELLOWSTONE   N/A      5   2  87 CALM      30.55F
W YELLOWSTONE  NOT AVBL

$$
WYZ002>013-054>058-071-098>099-121400-
NORTHERN WYOMING

CITY           SKY/WX    TMP DP  RH WIND       PRES   REMARKS
JACKSON        FAIR       8   5  87 NE6       30.57F WCI  -2
CODY           FAIR      21  15  78 CALM      30.33F
GREYBULL       FAIR      13   8  81 CALM      30.37F
WORLAND        FAIR      16  14  92 CALM      30.35F
SHERIDAN       FAIR      24  16  71 SE5       30.21F WCI  18
BUFFALO        FAIR      48   3  15 SW3       30.24F
GILLETTE       FAIR      39  17  41 SW9       30.22F WCI  33
HULETT         FAIR      34  18  51 SW14      30.22F WCI  24
NEWCASTLE      FAIR      27  14  59 NW3       30.27F

$$
WYZ014>020-022>026-101>103-121400-
CENTRAL WYOMING

CITY           SKY/WX    TMP DP  RH WIND       PRES   REMARKS
BIG PINEY      FAIR      13   5  70 CALM      30.48F
PINEDALE       FAIR      19  10  68 CALM      30.48S
DUBOIS         FAIR      34   1  25 NW20      30.42F WCI  22
LANDER         FAIR      21  16  81 S3        30.38S
RIVERTON       FAIR      15  12  88 CALM      30.39F
CASPER         FAIR      34  16  47 SW16G23   30.34F WCI  24
DOUGLAS        FAIR      23  18  81 W3        30.31F

$$
WYZ021-027>030-104>119-121400-
SOUTHERN WYOMING

CITY           SKY/WX    TMP DP  RH WIND       PRES   REMARKS
EVANSTON       FAIR      30  12  47 S6        30.52F WCI  24
FORT BRIDGER   FAIR      35  10  36 W12       30.52F WCI  27
ROCK SPRINGS   FAIR      24   6  46 W7        30.49S WCI  16
DIXON          FAIR      11   6  81 CALM      30.55F
RAWLINS        FAIR      16  10  77 CALM      30.47F
SARATOGA       FAIR      18  12  79 E3        30.49S
LARAMIE        FAIR      15   9  76 CALM      30.41F
CHEYENNE       FAIR      41  16  36 W15G22    30.33F
TORRINGTON     FAIR      20  14  77 NW7       30.30F WCI  11
PINE BLUFFS    FAIR      21  14  73 MISG      30.34S

$$




USA.gov is the U.S. government's official web portal to all federal, state and local government web resources and services.